Location: Newark
(46.7000°N, 60.6000°W)
Time: 08:21:32
(UTC+00:00)

Vanguard 3 - Pass Details

Date: 02 November 2020
Orbit: 508 x 3262 km, 33.3° (Epoch: 29 November)

Event Time Altitude Azimuth Distance (km) Brightness Sun altitude
Rises 07:04:57 0° 212° (SSW) 5,323 - -38.0°
Reaches altitude 10° 07:08:30 10° 203° (SSW) 4,687 - -37.4°
Exits shadow 07:12:50 22° 187° (S) 4,147 10.4 -36.7°
Maximum altitude 07:20:33 33° 146° (SE) 4,020 10.6 -35.5°
Drops below altitude 10° 07:36:24 10° 92° (E) 6,196 12.4 -32.9°
Sets 07:42:00 0° 84° (E) 7,215 13.1 -31.9°
